EW8735 Weather Reports


time (UTC)temp
F
wind
direction
speed
knots
gust
knots
rain 1hr
in
rain 24hr
in
rain mn
in
humidity
%
barometer
mb
20260904044555 55 124 0.0 0.0 0.00 0.28 0.09 59 1007.1
20260904043100 56 134 0.0 0.0 0.00 0.28 0.09 57 1006.7
20260904041601 56 133 0.0 0.0 0.00 0.28 0.09 56 1006.5
20260904040053 56 134 0.0 0.0 0.00 0.28 0.09 56 1006.5
20260904034553 57 131 0.0 0.0 0.00 0.33 0.09 55 1006.4
20260904033053 57 122 0.0 0.0 0.00 0.33 0.09 54 1006.2
20260904031558 57 135 0.0 0.0 0.00 0.33 0.09 54 1006.3
20260904030052 57 90 0.0 0.0 0.00 0.33 0.09 54 1006.0
20260904024557 58 127 0.0 0.0 0.00 0.33 0.09 52 1005.9
20260904023052 58 117 0.0 0.0 0.00 0.33 0.09 52 1006.0
20260904021552 58 136 0.0 0.0 0.00 0.33 0.09 52 1006.0
20260904020050 60 146 0.0 0.0 0.00 0.33 0.09 49 1006.0
20260904014614 61 17 0.0 0.0 0.00 0.33 0.09 58 1005.8
20260904013105 60 16 0.0 0.0 0.00 0.33 0.09 60 1005.8
20260904011548 61 338 0.0 0.0 0.00 0.33 0.09 60 1006.0
20260904010050 61 338 0.0 0.0 0.00 0.33 0.09 58 1006.1
20260904004547 62 338 0.0 0.0 0.00 0.33 0.09 57 1005.9
20260904003046 62 338 0.0 0.0 0.00 0.33 0.09 56 1005.8
20260904001546 62 338 0.0 0.0 0.00 0.33 0.09 55 1005.8
20260904000048 63 305 0.0 0.0 0.00 0.33 0.09 51 1006.1
20260903234547 63 299 0.0 0.0 0.00 0.33 0.09 52 1006.2
20260903233045 63 293 0.0 0.0 0.00 0.33 0.09 50 1006.2
20260903231546 64 197 0.0 0.0 0.00 0.33 0.09 49 1006.4
20260903230044 64 197 0.0 0.0 0.00 0.33 0.09 50 1006.3
20260903224544 64 193 0.0 0.0 0.00 0.33 0.09 49 1006.5
20260903223053 64 201 0.0 0.0 0.00 0.33 0.09 49 1006.7
20260903221542 64 201 0.0 0.0 0.00 0.33 0.09 51 1006.7
20260903220042 64 258 0.0 0.0 0.00 0.33 0.09 48 1006.5
20260903214543 64 258 0.0 0.0 0.00 0.33 0.09 51 1006.6
20260903213044 64 258 0.0 0.0 0.00 0.33 0.09 49 1007.0
20260903211557 64 256 0.0 0.0 0.00 0.33 0.09 48 1007.3
20260903210040 64 255 0.0 0.0 0.00 0.33 0.09 48 1007.1
20260903204539 64 254 0.0 0.0 0.00 0.33 0.09 48 1007.2
20260903203040 64 254 0.0 0.0 0.00 0.33 0.09 49 1007.6
20260903201536 63 254 0.0 0.0 0.00 0.33 0.09 50 1007.7
20260903200033 62 254 0.0 0.0 0.00 0.33 0.09 49 1007.8
20260903194533 62 254 0.0 0.0 0.00 0.33 0.09 50 1008.0
20260903193031 63 254 0.0 0.0 0.00 0.33 0.09 50 1007.7
20260903191531 62 253 0.0 0.0 0.00 0.33 0.09 51 1007.9
20260903190030 62 254 0.0 0.0 0.00 0.33 0.09 51 1008.0
20260903184530 62 253 0.0 0.0 0.00 0.33 0.09 52 1008.2
20260903183029 62 253 0.0 0.0 0.00 0.33 0.09 53 1008.1
20260903181527 62 253 0.0 0.0 0.00 0.33 0.09 52 1008.2
20260903180027 63 254 0.0 0.0 0.00 0.33 0.09 51 1008.4
20260903174534 62 254 0.0 0.0 0.01 0.33 0.09 53 1008.4
20260903173034 61 253 0.0 0.0 0.01 0.33 0.09 57 1008.5
20260903171521 61 251 0.0 0.0 0.01 0.33 0.09 56 1008.5
20260903170028 60 257 0.0 0.0 0.01 0.33 0.09 54 1008.5
20260903164518 60 257 0.0 0.0 0.00 0.32 0.08 53 1008.3
20260903163016 59 258 0.0 0.0 0.00 0.32 0.08 57 1008.4
20260903161512 58 168 0.0 0.0 0.00 0.32 0.08 63 1008.3
20260903160010 58 126 0.0 0.0 0.00 0.32 0.08 64 1008.5
20260903154509 58 112 0.0 0.0 0.00 0.32 0.08 68 1008.5
20260903153005 57 96 0.0 0.0 0.00 0.32 0.08 72 1008.5
20260903151503 56 125 0.0 0.0 0.00 0.32 0.08 78 1008.6
20260903150101 56 115 0.0 0.0 0.00 0.32 0.08 82 1008.6
20260903144602 55 113 0.0 0.0 0.00 0.32 0.08 80 1008.7
20260903143105 54 106 0.0 0.0 0.00 0.32 0.08 80 1008.6
20260903141555 53 85 0.0 0.0 0.00 0.32 0.08 86 1008.5
20260903140055 53 135 0.0 0.0 0.00 0.32 0.08 87 1008.5
20260903134601 53 146 0.0 0.0 0.00 0.32 0.08 86 1008.5
20260903133105 53 146 0.0 0.0 0.00 0.32 0.08 86 1008.3
20260903131552 53 146 0.0 0.0 0.00 0.32 0.08 85 1008.4
20260903130117 53 146 0.0 0.0 0.00 0.32 0.08 85 1008.2
20260903124557 53 146 0.0 0.0 0.00 0.32 0.08 86 1008.0
20260903123049 53 146 0.0 0.0 0.00 0.32 0.08 87 1007.9
20260903121545 53 146 0.0 0.0 0.00 0.32 0.08 89 1007.7
20260903120044 53 146 0.0 0.0 0.00 0.32 0.08 91 1007.7
20260903114544 53 146 0.0 0.0 0.00 0.32 0.08 91 1007.5
20260903113044 53 146 0.0 0.0 0.00 0.32 0.08 91 1007.6
20260903111542 53 146 0.0 0.0 0.00 0.32 0.08 91 1007.6
20260903110044 53 146 0.0 0.0 0.01 0.32 0.08 89 1007.3
20260903104540 53 146 0.0 0.0 0.02 0.32 0.08 90 1007.1
20260903103039 53 146 0.0 0.0 0.04 0.32 0.08 89 1007.3
20260903101538 53 146 0.0 0.0 0.05 0.32 0.08 90 1007.3
20260903100039 53 146 0.0 0.0 0.06 0.31 0.07 90 1007.2
20260903094545 53 146 0.0 0.0 0.05 0.30 0.06 89 1007.4
20260903093034 54 146 0.0 0.0 0.03 0.28 0.04 90 1007.4
20260903091534 54 146 0.0 0.0 0.03 0.27 0.03 89 1007.2
20260903090039 54 146 0.0 0.0 0.01 0.25 0.01 89 1007.0
20260903084531 54 146 0.0 0.0 0.01 0.25 0.01 88 1006.7
20260903083033 54 146 0.0 0.0 0.01 0.25 0.01 88 1006.6
20260903081526 54 146 0.0 0.0 0.00 0.24 0.00 88 1006.4
20260903080024 54 146 0.0 0.0 0.00 0.24 0.00 87 1006.2
20260903074522 54 146 0.0 0.0 0.00 0.24 0.00 86 1006.1
20260903073021 55 146 0.0 0.0 0.00 0.24 0.00 83 1005.8
20260903071518 54 143 0.0 0.0 0.01 0.24 0.00 84 1005.8
20260903070019 54 143 0.0 0.0 0.09 0.24 0.00 85 1006.0
20260903064515 54 142 0.0 0.0 0.11 0.24 0.24 87 1005.7
20260903063024 54 139 0.0 0.0 0.13 0.24 0.24 86 1006.0
20260903061512 54 170 0.0 0.0 0.12 0.22 0.22 85 1006.5
20260903060031 55 252 0.0 0.0 0.06 0.15 0.15 85 1006.6
20260903054509 56 253 0.0 0.0 0.05 0.13 0.13 84 1006.6
20260903053008 57 160 0.0 0.0 0.05 0.11 0.11 83 1006.2
20260903051507 57 150 0.0 0.0 0.05 0.10 0.10 83 1005.7
20260903050008 57 148 0.0 0.0 0.05 0.09 0.09 82 1005.7